[[{"header":{"parameterUnit":"m.s-1","parameterCategory":1,"la1":30.2991,"la2":30.254,"lo1":-89.0895,"lo2":-89.0444,"dy":0.0017,"dx":0.0017,"nx":28,"ny":28,"refTime":"2025-04-02T09:00:00:Z","depth":0,"parameterNumber":2,"parameterNumberName":"U-component_of_WINDS"},"data":[0,0,0,0,0,0,0,0,0,0,0,0,0,0,0,0,0,0,0,0,0,0,0,0,0,0,0,0,0,0,0,0,0,0,0,0,0,0,0,0,0,0,0,0,0,0,0,0,0,0,0,0,0,0,0,0,0,0,-4.7174,-4.7175,0,-4.7288,-4.729,-4.7291,-4.7309,-4.7308,-4.7307,-4.7306,-4.7421,-4.7425,-4.7429,0,0,0,0,0,0,0,0,0,0,0,0,0,-4.6968,-4.6972,-4.7173,-4.7175,-4.7176,-4.7288,-4.729,-4.7291,-4.7309,-4.7308,-4.7307,-4.7305,-4.742,-4.7424,-4.7429,0,0,0,0,0,0,0,0,0,0,0,0,0,-4.7068,-4.6973,-4.7173,-4.7199,-4.7202,-4.7288,-4.729,-4.7292,-4.7309,-4.7308,-4.7306,-4.7305,-4.7418,-4.7424,-4.743,-4.7497,0,0,-4.7448,-4.7451,0,0,0,0,0,0,0,0,-4.7062,-4.7075,-4.7194,-4.7197,-4.7201,-4.7283,-4.726,-4.7361,-4.731,-4.7269,-4.7306,-4.7304,-4.7376,-4.7385,-4.741,-4.7503,-4.7508,-4.7449,-4.7452,-4.7455,-4.7457,0,0,0,0,0,0,0,-4.7055,-4.707,-4.7219,-4.7195,-4.72,-4.7204,-4.7216,-4.7279,-4.7329,-4.7272,-4.7274,-4.7287,-4.7378,-4.7404,-4.7413,-4.7509,-4.7449,-4.7454,-4.7458,-4.746,-4.7663,-4.7665,0,0,0,0,0,0,-4.7044,-4.7064,-4.7215,-4.7222,-4.7127,-4.7209,-4.7223,-4.7258,-4.7329,-4.7338,-4.7288,-4.7287,-4.7395,-4.7406,-4.7417,-4.75,-4.7455,-4.7461,-4.7464,-4.7661,-4.7663,-4.7665,0,0,0,0,0,0,-4.7039,-4.7057,-4.7211,-4.7144,-4.7164,-4.7214,-4.7253,-4.7261,-4.7288,-4.7341,-4.735,-4.7306,-4.7394,-4.7409,-4.7477,-4.7504,-4.7463,-4.7469,-4.7659,-4.7662,-4.7664,-4.7666,0,0,0,0,0,0,-4.7033,-4.7055,-4.7082,-4.7144,-4.7167,-4.7269,-4.7255,-4.7264,-4.7298,-4.7298,-4.736,-4.7369,-4.7394,-4.7468,-4.7483,-4.7512,-4.7473,-4.7657,-4.766,-4.7663,-4.7664,-4.7669,-4.7673,0,0,0,0,0,-4.7026,-4.7077,-4.7083,-4.7101,-4.7201,-4.7271,-4.7284,-4.7312,-4.73,-4.7327,-4.7361,-4.7367,-4.75,-4.7475,-4.7492,-4.7523,-4.7655,-4.7659,-4.7663,-4.7662,-4.7668,-4.7673,0,0,0,0,0,0,-4.7015,-4.7086,-4.7093,-4.7166,-4.7212,-4.7274,-4.7308,-4.7317,-4.7367,-4.7365,-4.7398,-4.7412,-4.7479,-4.7508,-4.748,-4.7592,-4.7576,-4.7584,-4.757,-4.7576,-4.758,-4.757,-4.7478,0,0,0,0,0,-4.7022,-4.7073,-4.7132,-4.719,-4.7213,-4.7257,-4.7288,-4.7306,-4.7355,-4.7374,-4.7414,-4.7461,-4.7513,-4.7546,-4.7597,-4.767,-4.7683,-4.7699,-4.7704,-4.7707,-4.7712,-4.7752,-4.776,-4.7678,-4.7678,-4.7678,0,0,-4.7035,-4.708,-4.711,-4.7189,-4.7227,-4.7279,-4.7273,-4.7328,-4.7366,-4.7383,-4.7449,-4.7481,-4.7535,-4.7605,-4.7638,-4.7632,-4.7738,-4.7712,-4.7714,-4.7718,-4.7757,-4.7764,-4.7771,-4.7681,-4.7681,-4.768,0,0,-4.7084,-4.7124,-4.7177,-4.7216,-4.7274,-4.7303,-4.7316,-4.7376,-4.7397,-4.7466,-4.7479,-4.7525,-4.7615,-4.7653,-4.7684,-4.775,-4.7756,-4.7766,-4.7788,-4.7826,-4.7832,-4.7838,-4.786,-4.7868,-4.7772,-4.7772,-4.7772,0,-4.7093,-4.7171,-4.7203,-4.7257,-4.7292,-4.7311,-4.7365,-4.7401,-4.7472,-4.7495,-4.7487,-4.76,-4.7638,-4.7718,-4.7734,-4.7759,-4.7774,-4.7757,-4.7829,-4.7835,-4.7841,-4.7862,-4.7871,-4.7772,-4.7772,-4.7772,-4.7772,0,-4.7178,-4.7233,-4.7269,-4.7338,-4.7377,-4.743,-4.747,-4.7505,-4.7521,-4.755,-4.762,-4.7667,-4.7727,-4.7748,-4.7763,-4.783,-4.7824,-4.7823,-4.7807,-4.7849,-4.7869,-4.7878,-4.7773,-4.7773,-4.7773,-4.7773,0,0,-4.7221,-4.7309,-4.7321,-4.7353,-4.742,-4.7462,-4.7517,-4.7577,-4.7606,-4.7656,-4.7702,-4.7778,-4.7777,-4.7813,-4.7833,-4.7867,-4.7915,-4.7861,-4.7863,-4.7868,-4.799,-4.7988,-4.7997,-4.7921,-4.7923,-4.7924,-4.7984,0,-4.7277,-4.7376,-4.7407,-4.7488,-4.7539,-4.7559,-4.7607,-4.7652,-4.7682,-4.7729,-4.7761,-4.7814,-4.781,-4.7832,-4.7866,-4.7901,-4.7939,-4.7898,-4.7962,-4.7964,-4.7945,-4.8008,-4.8007,-4.8062,-4.7993,-4.7994,-4.7995,0,-4.7355,-4.7406,-4.7493,-4.7553,-4.7576,-4.7618,-4.7676,-4.7721,-4.7773,-4.7792,-4.7833,-4.7851,-4.7908,-4.7892,-4.7971,-4.7942,-4.7971,-4.7993,-4.7996,-4.8,-4.798,-4.8013,-4.808,-4.8087,-4.8009,-4.8007,-4.8007,0,-4.7375,-4.7466,-4.753,-4.7557,-4.7629,-4.7659,-4.769,-4.7741,-4.7776,-4.7827,-4.7849,-4.7906,-4.7936,-4.798,-4.8013,-4.7998,-4.8089,-4.8075,-4.8105,-4.8104,-4.8121,-4.8119,-4.8191,-4.8144,-4.8143,-4.8143,-4.8143,0,-4.7433,-4.7485,-4.754,-4.7579,-4.7638,-4.7674,-4.7731,-4.7764,-4.7809,-4.7854,-4.7876,-4.7918,-4.796,-4.8007,-4.8034,-4.8095,-4.8109,-4.8125,-4.8131,-4.8122,-4.812,-4.8139,-4.8135,-4.8146,-4.8145,-4.8145,-4.8144,0,-4.7464,-4.7504,-4.7574,-4.7638,-4.7655,-4.7696,-4.775,-4.7788,-4.782,-4.7877,-4.7892,-4.7941,-4.7998,-4.8036,-4.8109,-4.8127,-4.8193,-4.8199,-4.8175,-4.8177,-4.8204,-4.82,-4.829,-4.8302,-4.8248,-4.8249,-4.8249,0,-4.7497,-4.7538,-4.7606,-4.7638,-4.767,-4.7722,-4.7757,-4.7795,-4.7831,-4.7894,-4.7925,-4.7984,-4.8032,-4.8123,-4.8164,-4.822,-4.8227,-4.8254,-4.8235,-4.8225,-4.8225,-4.8221,-4.8225,-4.8256,-4.8257,-4.8257,-4.8257,0,-4.7551,-4.7569,-4.7619,-4.7677,-4.7719,-4.7766,-4.7814,-4.7839,-4.7884,-4.7924,-4.7983,-4.8021,-4.8096,-4.8154,-4.8214,-4.8246,-4.8259,-4.8264,-4.8273,-4.8263,-4.8246,-4.8254,-4.8181,-4.8261,-4.826,-4.826,-4.826,-4.826,-4.7583,-4.7619,-4.7673,-4.7729,-4.7769,-4.7813,-4.7852,-4.7889,-4.7939,-4.8003,-4.8023,-4.8084,-4.8136,-4.8218,-4.8252,-4.83,-4.8297,-4.8311,-4.8314,-4.8317,-4.8316,-4.8241,-4.8311,-4.8311,-4.8311,-4.8311,-4.8311,0,-4.7636,-4.7672,-4.7723,-4.7789,-4.7833,-4.7843,-4.7896,-4.7932,-4.7986,-4.8034,-4.8082,-4.815,-4.8206,-4.8253,-4.8312,-4.8341,-4.8349,-4.8355,-4.8352,-4.8359,-4.8316,-4.8301,-4.8348,-4.8348,-4.8348,-4.8348,-4.8348,-4.8348,-4.7668,-4.7731,-4.7755,-4.7838,-4.7874,-4.7934,-4.7964,-4.8004,-4.8043,-4.8117,-4.8165,-4.8196,-4.8243,-4.8306,-4.8358,-4.837,-4.839,-4.8395,-4.8408,-4.8366,-4.8362,-4.8358,-4.8344,-4.8399,-4.8399,-4.8447,-4.8447,-4.8447]},{"header":{"parameterUnit":"m.s-1","parameterCategory":1,"la1":30.2991,"la2":30.254,"lo1":-89.0895,"lo2":-89.0444,"dy":0.0017,"dx":0.0017,"nx":28,"ny":28,"refTime":"2025-04-02T09:00:00:Z","depth":0,"parameterNumber":3,"parameterNumberName":"V-component_of_WINDS"},"data":[0,0,0,0,0,0,0,0,0,0,0,0,0,0,0,0,0,0,0,0,0,0,0,0,0,0,0,0,0,0,0,0,0,0,0,0,0,0,0,0,0,0,0,0,0,0,0,0,0,0,0,0,0,0,0,0,0,0,5.6697,5.6698,0,5.6766,5.6767,5.6768,5.6762,5.676,5.6759,5.6758,5.6826,5.6829,5.6832,0,0,0,0,0,0,0,0,0,0,0,0,0,5.656,5.6563,5.6697,5.6698,5.6699,5.6766,5.6767,5.6768,5.6762,5.676,5.6759,5.6758,5.6826,5.6829,5.6832,0,0,0,0,0,0,0,0,0,0,0,0,0,5.6623,5.6564,5.6697,5.6704,5.6705,5.6766,5.6767,5.6768,5.6762,5.676,5.6759,5.6757,5.6824,5.6829,5.6833,5.689,0,0,5.6845,5.6847,0,0,0,0,0,0,0,0,5.662,5.6628,5.6702,5.6704,5.6705,5.6754,5.6743,5.6809,5.6762,5.674,5.6758,5.6757,5.6803,5.6809,5.6825,5.6893,5.6896,5.6846,5.6848,5.685,5.6851,0,0,0,0,0,0,0,5.6615,5.6625,5.6724,5.6703,5.6705,5.6704,5.6711,5.6756,5.678,5.6742,5.6742,5.675,5.6804,5.6821,5.6827,5.6897,5.6846,5.6849,5.6852,5.6854,5.7018,5.7019,0,0,0,0,0,0,5.661,5.6622,5.6722,5.6726,5.6658,5.6707,5.6715,5.674,5.6779,5.6784,5.6752,5.675,5.6815,5.6822,5.6829,5.6901,5.685,5.6854,5.6856,5.7016,5.7018,5.702,0,0,0,0,0,0,5.6607,5.6619,5.6719,5.6674,5.6687,5.6711,5.6739,5.6742,5.6759,5.6786,5.679,5.6765,5.6814,5.6823,5.6876,5.6903,5.6856,5.686,5.7013,5.7016,5.7019,5.7043,0,0,0,0,0,0,5.6603,5.6618,5.6639,5.6675,5.6689,5.6765,5.674,5.6744,5.6767,5.6765,5.68,5.6804,5.6814,5.6869,5.688,5.6908,5.6863,5.7011,5.7015,5.7018,5.704,5.7046,5.7052,0,0,0,0,0,5.6598,5.6642,5.6641,5.6653,5.6717,5.6766,5.6774,5.6785,5.6769,5.6791,5.6809,5.6803,5.6898,5.6875,5.6886,5.6916,5.7009,5.7014,5.7018,5.7037,5.7045,5.7051,0,0,0,0,0,0,5.6608,5.6647,5.6645,5.6702,5.6731,5.6765,5.6793,5.6792,5.6825,5.6822,5.6833,5.6841,5.6894,5.691,5.6883,5.6975,5.6952,5.6958,5.6962,5.697,5.6976,5.6971,5.6866,0,0,0,0,0,5.6617,5.6654,5.6686,5.6733,5.6748,5.6768,5.679,5.6796,5.6826,5.6837,5.6859,5.6888,5.6924,5.6948,5.6983,5.7042,5.7051,5.7068,5.7074,5.7079,5.7085,5.712,5.7129,5.7034,5.7034,5.7034,0,0,5.6636,5.6662,5.6684,5.6736,5.6759,5.6797,5.6778,5.6819,5.6848,5.6843,5.6895,5.6912,5.6944,5.7001,5.7027,5.7016,5.7113,5.7084,5.7088,5.7091,5.7125,5.7134,5.7142,5.7036,5.7036,5.7035,0,0,5.669,5.6712,5.6756,5.678,5.6815,5.6829,5.684,5.6875,5.6886,5.6938,5.6936,5.697,5.7033,5.7057,5.7078,5.7144,5.7141,5.7155,5.7186,5.722,5.7227,5.7234,5.726,5.7268,5.7161,5.7161,5.7161,0,5.6708,5.6766,5.6777,5.682,5.6843,5.6843,5.6887,5.691,5.6955,5.6971,5.6958,5.7039,5.706,5.7124,5.7141,5.7157,5.717,5.7151,5.7226,5.7232,5.7239,5.7263,5.7273,5.7162,5.7162,5.7162,5.7162,0,5.6788,5.6829,5.6859,5.6905,5.6932,5.6975,5.6993,5.7019,5.7023,5.7038,5.7092,5.7119,5.7161,5.7176,5.7179,5.7241,5.7234,5.7223,5.72,5.7249,5.7273,5.7282,5.7165,5.7164,5.7164,5.7163,0,0,5.6849,5.6902,5.6914,5.6935,5.6976,5.7008,5.7051,5.7093,5.7116,5.7147,5.7185,5.7239,5.7231,5.7254,5.7261,5.729,5.7344,5.7277,5.7278,5.729,5.7416,5.7424,5.7435,5.7342,5.7344,5.7345,5.7414,0,5.6908,5.6987,5.6999,5.7068,5.7107,5.7108,5.7146,5.7175,5.7191,5.7227,5.7244,5.7283,5.7268,5.7282,5.7312,5.7331,5.737,5.7326,5.7378,5.7379,5.737,5.7447,5.7455,5.7518,5.7422,5.7424,5.7425,0,5.6988,5.7024,5.7097,5.7135,5.7151,5.7186,5.7227,5.726,5.7294,5.7303,5.7331,5.7335,5.7381,5.7356,5.742,5.7391,5.7412,5.7425,5.7428,5.7434,5.7406,5.7456,5.7538,5.7548,5.7439,5.7438,5.7437,0,5.7027,5.7093,5.7147,5.7165,5.721,5.7234,5.7254,5.7287,5.7312,5.7348,5.7365,5.7404,5.7427,5.7458,5.7472,5.7453,5.7537,5.7512,5.7547,5.7546,5.7564,5.7563,5.7653,5.7577,5.7577,5.7576,5.7576,0,5.7093,5.7138,5.7165,5.7198,5.7249,5.7264,5.7314,5.7333,5.7362,5.7399,5.7402,5.7436,5.7453,5.749,5.7502,5.7555,5.7564,5.7574,5.7576,5.7574,5.7573,5.7589,5.7585,5.7579,5.7578,5.7578,5.7577,0,5.7145,5.7165,5.7224,5.7263,5.7274,5.731,5.7343,5.7375,5.7392,5.7438,5.745,5.7476,5.752,5.7538,5.7591,5.76,5.7661,5.7659,5.765,5.7651,5.7685,5.7682,5.7789,5.7805,5.7717,5.7717,5.7718,0,5.7186,5.7222,5.7265,5.7291,5.7312,5.7352,5.7379,5.7395,5.7423,5.7466,5.7493,5.7537,5.7574,5.7645,5.7668,5.771,5.771,5.7745,5.7716,5.7714,5.7713,5.7711,5.7715,5.775,5.7751,5.7752,5.7752,0,5.7258,5.7267,5.7306,5.7349,5.7381,5.7415,5.7448,5.7469,5.749,5.7521,5.7568,5.7596,5.7652,5.7697,5.774,5.7761,5.7761,5.7761,5.7772,5.777,5.7764,5.777,5.7666,5.7759,5.7758,5.7758,5.7757,5.7757,5.7307,5.734,5.7376,5.742,5.7447,5.7479,5.7512,5.7534,5.7573,5.7621,5.7627,5.7677,5.7712,5.7771,5.7793,5.7833,5.7824,5.7838,5.7842,5.7846,5.7849,5.7757,5.784,5.784,5.784,5.784,5.784,0,5.7381,5.7405,5.7445,5.7493,5.7528,5.7526,5.7563,5.7592,5.7637,5.7669,5.7706,5.776,5.7804,5.7832,5.7877,5.7903,5.7904,5.7914,5.7913,5.7918,5.7854,5.7841,5.7913,5.7913,5.7913,5.7913,5.7913,5.7913,5.7423,5.7478,5.7492,5.7561,5.7585,5.7635,5.7657,5.7686,5.7713,5.7774,5.7811,5.7829,5.7861,5.7908,5.7949,5.7956,5.7973,5.7984,5.799,5.793,5.7922,5.7915,5.7903,5.7987,5.7987,5.8052,5.8052,5.8053]}]]